星链-2411 (STARLINK-2411 )

导读 | 豆包AI

STARLINK-2411是美国SpaceX公司星链计划中的低轨通信卫星,于2021年3月11日发射升空,属于星链星座组网的组成部分。星链项目旨在为全球提供高速低延迟宽带互联网服务,该卫星配备霍尔推进器,具备自主避撞能力,运行在近地轨道,服务全球偏远地区网络接入,助力构建覆盖全球的卫星通信网络,寿命末期会主动离轨再入大气层焚毁。

基本信息
目录编号:
47826
目录名称:
STARLINK-2411
国际标识:
2021-018AR
轨道中心:
EARTH
卫星名称:
星链-2411
卫星全名:
星链-2411 (STARLINK-2411 )
卫星状态:
在轨 (已飞行1876 天)
发射日期:
2021-03-11 UTC
国别 :
美国 (US)
星等 :
--
轨道信息
数据来源 国际轨道数据
星历时间: 2026-04-30T08:00:18+0800
13小时前
查看轨道信息
半长轴: 6853.404km
偏心率: 0.0001232
轨道倾角: 53.162°
近地点辐角 82.303°
升交点赤经 6.665°
平近点角 277.811°
近地点: 474.422km
远地点: 476.112km
周期: 94.106分钟
每日圈数: 15.301827
详细信息
固有亮度:
5
最大亮度:
2.5
卫星平台:
Starlink V1.0
覆盖范围:
全球
运营商:
太空探索技术公司
运营商所在国:
美国
制造商(研发单位):
太空探索技术公司
制造商所在国:
美国
使用方式:
暂无
卫星简介
星链(Starlink)计划是由太空探索技术公司(SpaceX)提出的一个巨型低轨卫星互联网星座项目,计划在2019年至2024年间在太空搭建由约1.2万颗卫星组成的“星链”网络,其中1584颗将部署在地球上空550千米处的近地轨道,并从2020年开始工作。该卫星仍在工作。
2D轨道图
3D轨道图
轨道高度分析图
轨道倾角分析图
轨道综合分析图
查看轨道综合分析图